sat.trackr.live / text

‹ back to catalog

IONOSFERA-M 1

NORAD 61735 · 2024-199A

PAYLOAD ACTIVE UNKNOWN

§ Identity

Operator
Country
CIS
Launch date
2024-11-04
Launch site
VOSTO
Launch vehicle
Mass (kg)
RCS (m²)

Purposes: earth_obs

External: N2YO · Heavens-Above · Gunter

§ Orbital elements

Epoch: 2026-05-25T04:43:56.021088Z

Period
101.21 min
Inclination
98.7204°
Eccentricity
0.0001070
Mean motion
14.22749544 rev/d
Perigee alt
815.3 km
Apogee alt
816.8 km
Semi-major
7,194.2 km
B*
3.7019e-5
RAAN
18.6088°
Arg perigee
140.1460°
Mean anomaly
219.9797°
Rev number
12,443

§ Raw data

IONOSFERA-M 11 61735U 24199A   26145.19717617  .00000039  00000+0  37019-4 0  99992 61735  98.7204  18.6088 0001070 140.1460 219.9797 14.22749544124439

JSON: /api/v1/satellites/61735 · /tle

For live sub-satellite position, see the globe view (requires WebGL).

§ Visibility from observer

Set your observer location to see the next 7 days of passes ≥ 10°. The values pass through the URL so the page stays shareable.

No JS? Fill the form by hand. The geolocation button needs JavaScript.

§ Radio — SatNOGS DB

ModeDescriptionDownlinkUplink
CW MAYAK (150 MHz) 149.970 MHz
CW MAYAK (400 MHz) 399.920 MHz

2 transmitters · refreshed weekly from db.satnogs.org